KRNTKBLI

Guest
Details From KRNT - Renton Muni
To KBLI - BELLINGHAM INTL
Flight Number -
Tags generated
Created
Modified
Stats Distance 79 nm / 147 km
Max Altitude 1,000 ft / 305 m
Waypoints 3
Social Downloads 0
Likes 0
Share VATSIM

Download

Looking for another format? Having issues loading an existing format? Contact us
Advertisement - Login to hide

Notes

Basic altitude profile: - Ascent Rate: 2500ft/min - Ascent Speed: 250kts - Cruise Altitude: 35000ft - Cruise Speed: 420kts - Descent Rate: 1500ft/min - Descent Speed: 250kts Options: - Use NATs: yes - Use PACOTS: yes - Use low airways: yes - Use high airways: yes

Route

KRNT EGRET KBLI

ID Type Via Altitude Latitude Longitude Leg Dist Tot Dist Heading (true) Name
O KRNT APT - 0 ft / 0 m 47.49313˚ -122.21574˚ - 0 nm - Renton Muni
EGRET FIX - 1,000 ft / 305 m 48.71163˚ -122.50945˚ 74 nm 74 nm 351° / 351° -
O KBLI APT - 0 ft / 0 m 48.79261˚ -122.53753˚ 4 nm 79 nm 347° / 347° BELLINGHAM INTL

Altitude Profile

Advertisement - Login to hide

KRNT

Details ICAO KRNT (RNT)
Name Renton Muni
Region United States
Timezone America/Los_Angeles (UTC-7.0)
Stats Elevation 32 ft / 10 m (AMSL)
Location 47.493133° -122.215743°
Runways 1
Magnetic Variation 15.605° E

METAR

KRNT 210153Z 30007KT 10SM CLR 29/14 A2987 RMK AO2 SLP120 T02890144

Decode

TAF

Not found

Departure Runways

ID Width Length Bearing (true) Bearing (mag) Surface Threshold Offset Overrun Length
16 200 ft / 61 m 5,384 ft / 1,641 m 174.16° 158.56° Asphalt 299 ft / 91 m 0 ft / 0 m
34 200 ft / 61 m 5,384 ft / 1,641 m 354.17° 338.57° Asphalt 341 ft / 104 m 210 ft / 64 m

KBLI

Details ICAO KBLI (BLI)
Name BELLINGHAM INTL
Region United States
Timezone America/Los_Angeles (UTC-7.0)
Stats Elevation 170 ft / 52 m (AMSL)
Location 48.792615° -122.537535°
Runways 1
Magnetic Variation 15.974° E

METAR

KBLI 210153Z 17007KT 10SM CLR 24/14 A2989 RMK AO2 SLP125 T02390144

Decode

TAF

KBLI 202328Z 2100/2124 23006KT P6SM BKN150 BKN250 FM210300 19005KT P6SM VCSH BKN120 BKN200 FM211400 18016KT P6SM OVC020 FM211900 18014KT P6SM OVC035

Decode

Destination Runways

ID Width Length Bearing (true) Bearing (mag) Surface Threshold Offset Overrun Length
16 151 ft / 46 m 6,755 ft / 2,059 m 179.88° 163.91° Asphalt 0 ft / 0 m 0 ft / 0 m
34 151 ft / 46 m 6,755 ft / 2,059 m 359.88° 343.91° Asphalt 0 ft / 0 m 0 ft / 0 m

Approach Navaids

Runway Type Ident Frequency Range Bearing (true) Bearing (mag) Slope Elevation
16 Localiser IBLI 108.50 MHz 18 nm / 33 km 179.83° 163.85° - 152 ft / 46 m (AMSL)
16 Glidescope IBLI 108.50 MHz 10 nm / 19 km 179.88° 163.90° 3.00° 154 ft / 47 m (AMSL)

Popular Alternatives